This is the latest recevied weather packets stored in our database for station/object EA4BCR. If no packets are shown the sender has not sent any weather packets the latest 10 day(s).
| Time | Temp. | Humidity | Pressure | Rain* | Wind** | Luminosity | Snow |
|---|---|---|---|---|---|---|---|
| 1788021616 | 29.44° C | 20% | 1013.2 hPa | - | - | - | - |
| 1788021017 | 28.89° C | 21% | 1013.4 hPa | - | - | - | - |
| 1788020417 | 30° C | 22% | 1013.2 hPa | - | - | - | - |
| 1788019817 | 30° C | 21% | 1013.2 hPa | - | - | - | - |
| 1788019217 | 30.56° C | 20% | 1013.2 hPa | - | - | - | - |
| 1788018617 | 30° C | 20% | 1013.4 hPa | - | - | - | - |
| 1788018017 | 29.44° C | 23% | 1013.5 hPa | - | - | - | - |
| 1788017417 | 29.44° C | 22% | 1013.8 hPa | - | - | - | - |
| 1788016816 | 30° C | 20% | 1013.6 hPa | - | - | - | - |
| 1788016217 | 29.44° C | 21% | 1013.9 hPa | - | - | - | - |
| 1788015617 | 30° C | 21% | 1013.8 hPa | - | - | - | - |
| 1788015017 | 30.56° C | 22% | 1013.7 hPa | - | - | - | - |
| 1788014416 | 30° C | 22% | 1013.8 hPa | - | - | - | - |
| 1788013816 | 30.56° C | 22% | 1013.6 hPa | - | - | - | - |
| 1788013216 | 30° C | 24% | 1014.1 hPa | - | - | - | - |
| 1788012617 | 30° C | 25% | 1014.3 hPa | - | - | - | - |
| 1788012017 | 30° C | 23% | 1014.4 hPa | - | - | - | - |
| 1788011417 | 30° C | 24% | 1014.4 hPa | - | - | - | - |
| 1788010816 | 30.56° C | 23% | 1014.3 hPa | - | - | - | - |
| 1788010217 | 30° C | 25% | 1014.5 hPa | - | - | - | - |
| 1788009616 | 30.56° C | 26% | 1014.6 hPa | - | - | - | - |
| 1788009017 | 30° C | 25% | 1014.7 hPa | - | - | - | - |
| 1788008418 | 30° C | 27% | 1014.8 hPa | - | - | - | - |
| 1788007817 | 29.44° C | 26% | 1015 hPa | - | - | - | - |
| 1788007218 | 28.89° C | 28% | 1015.3 hPa | - | - | - | - |
* Rain since midnight (hover to see other rain measurements)
** Current wind speed in m/s (hover to see current wind gust speed)